Flight Track Log - Related Links

Times and Time Zones

All times are in EDT time to prevent confusion due to time zone crossing. See the DAL5889 flight status page for this flight to view local times or setup timezone preferences in your user account.

Time Position Orientation Groundspeed Altitude Reporting Facility
EDT Latitude Longitude Course Direction KTS MPH feet Rate Location/Type
04:16PM 42.3500 -71.0167 270° West 140 161 800  Level KA90
04:17PM 42.3333 -71.0000 144° Southeast 180 207 2,100 2,000 Climbing KA90
04:18PM 42.3167 -70.9000 103° East 279 321 4,400 2,250 Climbing KA90
04:19PM 42.2929 -70.7274 228° Southwest  Level FlightAware Approximate
04:19PM 42.3306 -70.8281 75° East 294 338 6,300  Level Boston Center
04:20PM 42.2287 -70.8274 240° Southwest  Level FlightAware Approximate
04:20PM 42.2978 -70.7306 114° Southeast 322 371 9,200  Level Boston Center
04:21PM 42.1833 -70.9435 270° West  Level FlightAware Approximate
04:21PM 42.2167 -70.7328 181° South 250 288 11,200  Level Boston Center
04:22PM 42.1744 -70.8319 240° Southwest 208 239 13,400 2,250 Climbing Boston Center
04:23PM 42.1592 -70.9500 260° West 257 296 15,700 1,300 Climbing Boston Center
04:24PM 42.1503 -71.0567 264° West 299 344 16,000 150 Climbing Boston Center
04:25PM 42.1408 -71.1494 262° West 318 366 16,000  Level Boston Center
04:26PM 42.1217 -71.2953 260° West 318 366 16,000  Level Boston Center
04:27PM 42.1061 -71.4214 261° West 318 366 16,000  Level Boston Center
04:28PM 42.0925 -71.5308 261° West 324 373 16,000  Level Boston Center
04:29PM 42.0767 -71.6486 260° West 324 373 16,000  Level Boston Center
04:30PM 42.0608 -71.7803 261° West 324 373 16,000  Level Boston Center
04:31PM 42.0469 -71.8867 260° West 329 379 16,000  Level Boston Center
04:32PM 42.0267 -72.0236 259° West 336 387 16,000  Level Boston Center
04:33PM 42.0125 -72.1439 261° West 336 387 16,000  Level Boston Center
04:34PM 41.9958 -72.2642 259° West 336 387 16,000  Level Boston Center
04:35PM 41.9814 -72.3869 261° West 336 387 16,000  Level Boston Center
04:36PM 41.9647 -72.5072 259° West 336 387 16,000  Level Boston Center
04:37PM 41.9500 -72.6272 261° West 328 377 16,000  Level Boston Center
04:38PM 41.9247 -72.7358 253° West 335 386 16,000 -200 Level Boston Center
04:39PM 41.8786 -72.8444 240° Southwest 335 386 15,600 -700 Descending Boston Center
04:40PM 41.8344 -72.9444 239° Southwest 328 377 14,600 -800 Descending Boston Center
04:41PM 41.7922 -73.0497 242° Southwest 310 357 14,000 -300 Descending Boston Center
04:42PM 41.7542 -73.1386 240° Southwest 304 350 14,000  Level Boston Center
04:43PM 41.7203 -73.2244 242° Southwest 304 350 14,000 -100 Level Boston Center
04:44PM 41.6819 -73.3461 247° West 304 350 13,800 -650 Descending Boston Center
04:45PM 41.6603 -73.4544 255° West 299 344 12,700 -1,000 Descending Boston Center
04:46PM 41.6425 -73.5594 257° West 299 344 11,800 -957 Descending Boston Center
04:47PM 41.6000 -73.7333 252° West 287 330 10,100 -994 Descending New York TRACON
04:48PM 41.5833 -73.8333 257° West 282 325 9,100 -500 Descending New York TRACON
04:49PM 41.5667 -73.9333 257° West 283 326 9,100  Level New York TRACON
04:50PM 41.5000 -73.9167 169° South 292 336 9,100 -50 Level New York TRACON
04:51PM 41.4167 -73.8667 156° South 288 331 9,000 -300 Descending New York TRACON
04:52PM 41.3667 -73.8167 143° Southeast 251 289 8,500 -450 Descending New York TRACON
04:53PM 41.3000 -73.7667 151° Southeast 240 276 8,100 -200 Descending New York TRACON
04:54PM 41.2500 -73.7167 143° Southeast 246 283 8,100 -300 Level New York TRACON
04:55PM 41.2000 -73.6667 143° Southeast 209 241 7,500 -950 Descending New York TRACON
04:56PM 41.1500 -73.6333 153° Southeast 198 228 6,200 -1,300 Descending New York TRACON
04:57PM 41.1000 -73.6167 166° South 190 219 4,900 -1,050 Descending New York TRACON
04:58PM 41.0500 -73.6500 207° Southwest 174 200 4,100 -400 Descending New York TRACON
04:59PM 41.0167 -73.6833 217° Southwest 176 203 4,100  Level New York TRACON
05:00PM 40.9833 -73.7167 217° Southwest 177 204 4,100 -350 Level New York TRACON
05:01PM 40.9333 -73.7500 207° Southwest 178 205 3,400 -800 Descending New York TRACON
05:02PM 40.9000 -73.7833 217° Southwest 177 204 2,500 -900 Descending New York TRACON

Login

Don't have an account? Register now (free) for customized features, flight alerts, and more!